Camden, NC

9:09 PM EST on February 06, 2016 (GMT -0500)
Elizabeth City Cgas-Regional

Weather History for KECG - October, 2013

Change the Weather History Date:

Tuesday, October 8, 2013

  Actual Average Record
Temperature  
Mean Temperature 64 °F 65 °F  
Max Temperature 67 °F 75 °F 93 °F (1941)
Min Temperature 61 °F 56 °F 36 °F (1935)
Degree Days  
Heating Degree Days 1 3  
Month to date heating degree days 1 17  
Since 1 July heating degree days 16 29  
Cooling Degree Days 0 3  
Month to date cooling degree days 57 27  
Year to date cooling degree days 1628 1549  
Growing Degree Days 16 (Base 50)    
Moisture  
Dew Point 59 °F    
Average Humidity 83    
Maximum Humidity 93    
Minimum Humidity 73    
Precipitation  
Precipitation 0.35 in 0.10 in 4.29 in (1996)
Month to date precipitation 0.60 0.88  
Year to date precipitation 31.47 38.77  
Snow  
Snow 0.00 in - 0.00 in (2002)
Month to date snowfall 0.0  
Since 1 July snowfall 0.0  
Snow Depth 0.00 in    
Sea Level Pressure  
Sea Level Pressure 30.09 in    
Wind  
Wind Speed 17 mph (NNE)    
Max Wind Speed 24 mph    
Max Gust Speed 32 mph    
Visibility 9 miles    
Events Rain    
T = Trace of Precipitation, MM = Missing Value Source: NWS Daily Summary

Daily Weather History Graph

Daily Weather History Graph

Search for Another Location

Airport or City:

Trip Planner

Search our weather history database for the weather conditions in past years. The results will help you decide how hot, cold, wet, or windy it might be!

Date:

Astronomy

Oct. 08, 2013 Rise Set
Actual Time 7:05 AM EDT 6:37 PM EDT
Civil Twilight 6:40 AM EDT 7:03 PM EDT
Nautical Twilight 6:10 AM EDT 7:33 PM EDT
Astronomical Twilight 5:40 AM EDT 8:03 PM EDT
Moon 10:51 AM EDT (10/8) 9:19 PM EDT (10/8)
Length of Visible Light 12h 23m
Length of Day
11h 32m
Waxing Crescent, 16% of the Moon is Illuminated
Oct 8
Waxing Crescent
Oct 11
First Quarter
Oct 18
Full
Oct 26
Last Quarter
Nov 3
New

Hourly Weather History & Observations

Time (EDT) Temp. Dew Point Humidity Pressure Visibility Wind Dir Wind Speed Gust Speed Precip Events Conditions
12:03 AM 71.6 °F 69.8 °F 94% 29.97 in 4.0 mi North 9.2 mph - 0.02 in Rain Rain
12:18 AM 71.6 °F 69.8 °F 94% 29.97 in 6.0 mi North 10.4 mph - 0.03 in Rain Light Rain
12:34 AM 69.8 °F 66.2 °F 88% 29.97 in 10.0 mi North 18.4 mph 29.9 mph 0.03 in   Overcast
12:48 AM 66.2 °F 64.4 °F 94% 29.98 in 2.5 mi North 19.6 mph 26.5 mph 0.12 in Rain Heavy Rain
12:54 AM 66.9 °F 64.9 °F 93% 29.98 in 3.0 mi North 19.6 mph 26.5 mph 0.14 in Rain Rain
1:29 AM 64.4 °F 62.6 °F 94% 30.00 in 6.0 mi North 18.4 mph 27.6 mph 0.06 in Rain Light Rain
1:54 AM 64.9 °F 62.1 °F 90% 30.01 in 7.0 mi North 15.0 mph - 0.07 in Rain Light Rain
2:45 AM 64.4 °F 60.8 °F 88% 30.02 in 6.0 mi NNE 16.1 mph - 0.13 in Rain Light Rain
2:54 AM 63.0 °F 61.0 °F 93% 30.02 in 7.0 mi NNE 16.1 mph - 0.14 in Rain Rain
3:22 AM 62.6 °F 60.8 °F 94% 30.02 in 10.0 mi North 13.8 mph - 0.01 in Rain Light Rain
3:33 AM 62.6 °F 59.0 °F 88% 30.03 in 10.0 mi NNE 18.4 mph 26.5 mph 0.02 in Rain Light Rain
3:54 AM 62.1 °F 57.0 °F 84% 30.04 in 10.0 mi NNE 20.7 mph 25.3 mph 0.02 in   Overcast
4:27 AM 62.6 °F 59.0 °F 88% 30.04 in 10.0 mi NNE 16.1 mph 25.3 mph N/A   Overcast
4:54 AM 62.1 °F 57.9 °F 86% 30.04 in 10.0 mi NNE 25.3 mph 29.9 mph 0.00 in Rain Light Rain
5:54 AM 62.1 °F 59.0 °F 90% 30.07 in 10.0 mi North 12.7 mph - 0.03 in Rain Light Rain
6:16 AM 60.8 °F 57.2 °F 88% 30.07 in 8.0 mi NNE 12.7 mph - 0.01 in Rain Light Rain
6:28 AM 62.6 °F 57.2 °F 82% 30.07 in 10.0 mi NNE 12.7 mph - 0.01 in Rain Light Rain
6:51 AM 62.6 °F 57.2 °F 82% 30.07 in 10.0 mi NNE 15.0 mph - 0.01 in   Overcast
6:54 AM 63.0 °F 57.9 °F 84% 30.07 in 10.0 mi NNE 16.1 mph - 0.01 in   Overcast
7:54 AM 62.1 °F 57.0 °F 84% 30.11 in 10.0 mi NNE 13.8 mph 21.9 mph N/A   Overcast
8:05 AM 62.6 °F 57.2 °F 82% 30.11 in 10.0 mi NNE 13.8 mph - N/A   Overcast
8:54 AM 64.0 °F 55.9 °F 75% 30.13 in 10.0 mi NNE 13.8 mph 23.0 mph 0.00 in   Overcast
9:54 AM 64.0 °F 55.9 °F 75% 30.14 in 10.0 mi NNE 16.1 mph 24.2 mph N/A   Overcast
10:54 AM 64.9 °F 55.9 °F 73% 30.14 in 10.0 mi NNE 16.1 mph 24.2 mph 0.00 in   Overcast
11:54 AM 64.9 °F 57.0 °F 75% 30.15 in 10.0 mi NNE 15.0 mph 25.3 mph N/A   Overcast
12:08 PM 64.4 °F 57.2 °F 77% 30.15 in 10.0 mi NNE 13.8 mph 25.3 mph N/A   Overcast
12:54 PM 64.9 °F 55.9 °F 73% 30.14 in 10.0 mi NNE 23.0 mph 29.9 mph N/A   Mostly Cloudy
1:54 PM 64.9 °F 57.0 °F 75% 30.14 in 10.0 mi NNE 18.4 mph - 0.00 in   Mostly Cloudy
2:24 PM 66.2 °F 57.2 °F 73% 30.13 in 10.0 mi NNE 16.1 mph 23.0 mph N/A   Overcast
2:54 PM 66.0 °F 57.0 °F 73% 30.13 in 10.0 mi NNE 16.1 mph 23.0 mph N/A   Overcast
3:20 PM 66.2 °F 55.4 °F 68% 30.13 in 10.0 mi NNE 17.3 mph - N/A   Overcast
3:54 PM 66.0 °F 57.0 °F 73% 30.13 in 10.0 mi NNE 18.4 mph - N/A   Overcast
4:06 PM 66.2 °F 57.2 °F 73% 30.13 in 10.0 mi NNE 18.4 mph 26.5 mph N/A   Overcast
4:46 PM 66.2 °F 57.2 °F 73% 30.14 in 10.0 mi NNE 15.0 mph 24.2 mph N/A   Overcast
4:54 PM 66.0 °F 57.9 °F 75% 30.14 in 10.0 mi NNE 15.0 mph - N/A   Overcast
5:54 PM 66.0 °F 57.9 °F 75% 30.13 in 10.0 mi NNE 13.8 mph - N/A   Overcast
6:54 PM 64.9 °F 60.1 °F 84% 30.12 in 10.0 mi NNE 15.0 mph 24.2 mph 0.01 in Rain Light Rain
7:54 PM 64.0 °F 61.0 °F 90% 30.14 in 7.0 mi NNE 20.7 mph 26.5 mph 0.03 in Rain Light Rain
8:54 PM 63.0 °F 60.1 °F 90% 30.15 in 10.0 mi NNE 17.3 mph 24.2 mph 0.01 in   Overcast
9:54 PM 63.0 °F 57.9 °F 84% 30.16 in 9.0 mi NNE 16.1 mph - 0.02 in Rain Light Rain
10:54 PM 63.0 °F 57.9 °F 84% 30.16 in 10.0 mi NNE 17.3 mph - 0.00 in Rain Light Rain
11:54 PM 62.1 °F 57.9 °F 86% 30.14 in 10.0 mi NNE 13.8 mph - 0.01 in Rain Light Rain